Flag for U.S.A. Weather past 2 weeks in Rapid City, South Dakota, U.S.A.

Now
68 °F

Passing clouds.


Feels Like: 68 °F
Forecast: 64 / 86 °F
Wind: 3 mph from West

Location: Ellsworth Air Force Base

Current Time: Aug 20, 2014 at 7:07:19 AM

Latest Report: Aug 20, 2014 at 5:58 AM


Visibility: 10 mi

Pressure: 29.65 "Hg

Humidity: 65%

Dew point: 56 °F

Location of Rapid CityLocation

Historic Weather in Rapid City — Graph

°F

Rapid City temperature yesterday

Maximum temperature yesterday: 86 °F (at 3:58 PM)
Minimum temperature yesterday: 60 °F (at 5:58 AM)
Average temperature yesterday: 74 °F

Past Weeks' High & Low Weather Summary

 TemperatureHumidityPressure
High92 °F (Aug 14, 1:58 PM)100% (Aug 5, 6:58 AM)30.26 "Hg (Aug 5, 6:58 AM)
Low58 °F (Aug 18, 5:58 AM)31% (Aug 16, 3:58 PM)29.62 "Hg (Aug 20, 2:58 AM)
Average72 °F68%29.97 "Hg
* Reported Aug 5 5:02 AM — Aug 20 5:58 AM, Rapid City, Weather by CustomWeather, © 2014

Note: Actual official high and low records may vary slightly from our data, if they occured in-between our weather recording intervals... More about our weather records

Advertising

Rapid City weather history for previous 24 hours

 ConditionsComfort  
Time TempWeatherWind HumidityBarometerVisibility
5:58 AM
Aug 20
68 °FPassing clouds.3 mph65%29.65 "Hg10 mi
4:58 AM69 °FOvercast.7 mph63%29.64 "Hg10 mi
3:58 AM71 °FMostly cloudy.15 mph57%29.62 "Hg10 mi
2:58 AM72 °FMostly cloudy.12 mph54%29.62 "Hg10 mi
1:58 AM73 °FMostly cloudy.12 mph55%29.64 "Hg10 mi
12:58 AM72 °FOvercast.9 mph63%29.65 "Hg10 mi
11:58 PM
Aug 19
71 °FOvercast.8 mph71%29.66 "Hg10 mi
10:58 PM72 °FPassing clouds.3 mph64%29.75 "Hg10 mi
9:58 PM73 °FClear.2 mph61%29.75 "Hg10 mi
8:58 PM75 °FClear.7 mph57%29.76 "Hg10 mi
7:58 PM78 °FSunny.9 mph54%29.75 "Hg10 mi
6:58 PM81 °FSunny.2 mph48%29.67 "Hg10 mi
5:58 PM83 °FPassing clouds.2 mph44%29.68 "Hg10 mi
4:58 PM83 °FPassing clouds.5 mph45%29.69 "Hg10 mi
3:58 PM86 °FSunny.8 mph41%29.71 "Hg10 mi
2:58 PM83 °FSunny.5 mph44%29.72 "Hg10 mi
1:58 PM79 °FPassing clouds.6 mph53%29.75 "Hg10 mi
12:58 PM82 °FSunny.13 mph44%29.75 "Hg10 mi
11:58 AM81 °FSunny.12 mph49%29.76 "Hg10 mi
10:58 AM79 °FPassing clouds.13 mph51%29.78 "Hg10 mi
9:58 AM76 °FSunny.13 mph55%29.79 "Hg10 mi
8:58 AM74 °FSunny.13 mph56%29.79 "Hg10 mi
7:58 AM70 °FSunny.9 mph61%29.80 "Hg10 mi
Weather by CustomWeather, © 2014

See weather overviewHow to use our weather pages